Zurück zum Katalog

YUNHAI 2-2D

AktivWetterLEO
NORAD 59283·PAYLOAD·🇨🇳 China

Gestartet Mar 21, 2024 von Jiuquan Satellite Launch Center

Loading…

Nächste Überflüge (nächste 24 Stunden)

TLE

AktuellSource: Space-Track

Epoche: Sep 14, 2026, 12:50 UTC

1 59283U 24052D   26257.53529231 -.00000087  00000-0  29600-4 0  9999
2 59283  50.0061 243.6898 0004456 178.8962 181.1963 14.28021976131162

Verfolge YUNHAI 2-2D in Echtzeit mit AllMySat

Download on the App Store